Location: Exeidioux
(45.6312°N, 1.6819°E)
Time: 14:28:14
(UTC+00:00)

SL-16 R/B - Pass Details

Date: 03 March 2021
Orbit: 843 x 845 km, 71.0° (Epoch: 16 April)

Event Time Altitude Azimuth Distance (km) Brightness Sun altitude
Rises 19:30:07 0° 234° (SW) 3,392 6.0 -19.4°
Reaches altitude 10° 19:32:48 10° 244° (WSW) 2,462 5.3 -19.9°
Maximum altitude 19:37:52 33° 307° (NW) 1,391 3.9 -20.8°
Drops below altitude 10° 19:42:58 10° 11° (N) 2,476 4.6 -21.6°
Sets 19:45:41 0° 21° (NNE) 3,415 5.3 -22.1°
